Tracking 20710 objects as of 30-May-2020
HD Live streaming from Space Station
objects crossing your sky now

FENGYUN 1C DEB

Track FENGYUN 1C DEB now!
10-day predictions


NORAD ID: 33668
Int'l Code: 1999-025DFD
Perigee: 528.9 km
Apogee: 784.0 km
Inclination: 99.0 °
Period: 97.7 minutes
Semi major axis: 7027 km
RCS: 0.0083 m2 (small)
Launch date: May 10, 1999
Source: People's Republic of China (PRC)
Launch site: Taiyaun Space Center, China (TSC)

Note: This is SATELLITE DEBRIS
aabbcc
Your satellite tracking list
Your tracking list is empty




NASA's NSSDC Master Catalog

Two Line Element Set (TLE):
1 33668U 99025DFD 20150.64408561 +.00000717 +00000-0 +93329-4 0  9998
2 33668 099.0319 296.3274 0181506 125.7233 236.1011 14.73705044659926
Source of the keplerian elements: AFSPC